Flag for U.S.A. Weather past 2 weeks in Mesquite, Texas, U.S.A.

Now
72 °F

Mostly cloudy.


Feels Like: 72 °F
Forecast: 67 / 78 °F
Wind: 3 mph from East

Location: Mesquite Metro Airport

Current Time: May 22, 2015 at 7:23:43 PM

Latest Report: May 22, 2015 at 6:50 PM


Visibility: 10 mi

Pressure: 30.09 "Hg

Humidity: 78%

Dew point: 64 °F

Location of MesquiteLocation

Historic Weather in Mesquite — Graph

°F

Mesquite temperature yesterday

Maximum temperature yesterday: 65 °F (at 12:15 AM)
Minimum temperature yesterday: 55 °F (at 7:50 AM)
Average temperature yesterday: 61 °F

Past Weeks' High & Low Weather Summary

 TemperatureHumidityPressure
High88 °F (May 18, 2:50 PM)100% (May 9, 7:59 AM)30.28 "Hg (May 9, 7:59 AM)
Low36 °F (May 17, 12:50 PM)43% (May 18, 5:50 PM)26.42 "Hg (May 10, 5:50 PM)
Average70 °F87%30.00 "Hg
* Reported May 7 5:50 PM — May 22 5:50 PM, Mesquite, Weather by CustomWeather, © 2015

Note: Actual official high and low records may vary slightly from our data, if they occured in-between our weather recording intervals... More about our weather records

Advertising

Mesquite weather history for previous 24 hours

 ConditionsComfort  
Time TempWeatherWind HumidityBarometerVisibility
5:50 PM
Fri, May 22
72 °FMostly cloudy.6 mph78%30.10 "Hg10 mi
4:50 PM73 °FMore clouds than sun.8 mph69%30.11 "Hg10 mi
3:50 PM72 °FOvercast.5 mph73%30.12 "Hg10 mi
2:50 PM72 °FBroken clouds.6 mph69%30.13 "Hg10 mi
1:50 PM68 °FBroken clouds.8 mph69%30.14 "Hg10 mi
12:50 PM70 °FMostly cloudy.10 mph64%30.16 "Hg10 mi
11:50 AM64 °FMostly cloudy.10 mph68%30.16 "Hg10 mi
10:55 AM61 °FMostly cloudy.10 mph77%30.18 "Hg10 mi
9:50 AM61 °FCloudy.12 mph72%30.18 "Hg10 mi
8:50 AM61 °FOvercast.14 mph72%30.19 "Hg10 mi
7:50 AM61 °FMostly cloudy.9 mph88%30.18 "Hg7 mi
6:50 AM61 °FOvercast.8 mph88%30.18 "Hg10 mi
6:15 AM60 °FOvercast.8 mph91%30.16 "Hg10 mi
5:55 AM60 °FLow clouds.7 mph92%30.16 "Hg10 mi
5:15 AM60 °FLow clouds.9 mph93%30.16 "Hg10 mi
4:55 AM60 °FLow clouds.9 mph93%30.15 "Hg10 mi
4:15 AM61 °FOvercast.7 mph92%30.15 "Hg10 mi
3:55 AM61 °FMostly cloudy.8 mph93%30.14 "Hg10 mi
3:15 AM61 °FLow clouds.9 mph93%30.15 "Hg10 mi
2:55 AM61 °FOvercast.9 mph93%30.15 "Hg10 mi
2:35 AM61 °FOvercast.7 mph93%30.14 "Hg10 mi
2:15 AM61 °FMostly cloudy.10 mph93%30.14 "Hg10 mi
1:55 AM61 °FMostly cloudy.8 mph93%30.15 "Hg10 mi
1:35 AM61 °FOvercast.9 mph94%30.15 "Hg10 mi
1:15 AM61 °FOvercast.8 mph94%30.14 "Hg10 mi
12:55 AM62 °FOvercast.5 mph94%30.15 "Hg10 mi
12:35 AM62 °FOvercast.6 mph93%30.16 "Hg10 mi
12:15 AM62 °FOvercast.6 mph93%30.16 "Hg10 mi
11:55 PM
Thu, May 21
62 °FOvercast.6 mph94%30.16 "Hg10 mi
11:35 PM62 °FMostly cloudy.5 mph93%30.17 "Hg10 mi
11:15 PM62 °FMostly cloudy.5 mph93%30.17 "Hg10 mi
10:55 PM62 °FMostly cloudy.6 mph92%30.17 "Hg10 mi
10:35 PM62 °FMostly cloudy.6 mph90%30.19 "Hg10 mi
10:15 PM62 °FMostly cloudy.3 mph90%30.18 "Hg10 mi
9:55 PM62 °FMostly cloudy.3 mph88%30.17 "Hg10 mi
9:35 PM62 °FMostly cloudy.3 mph87%30.17 "Hg10 mi
9:15 PM63 °FOvercast.5 mph88%30.17 "Hg10 mi
8:55 PM63 °FOvercast.5 mph86%30.16 "Hg10 mi
8:35 PM63 °FOvercast.3 mph85%30.15 "Hg10 mi
8:15 PM63 °FMostly cloudy.No wind84%30.15 "Hg10 mi
7:55 PM63 °FMostly cloudy.5 mph83%30.14 "Hg10 mi
Weather by CustomWeather, © 2015

See weather overviewHow to use our weather pages